Flag for Canada Weather past 2 weeks in Cornwall, Ontario, Canada

Now
35 °F

Chilly.


Feels Like: 35 °F
Forecast: 32 / 55 °F
Wind: No wind

Location: St Anicet

Current Time: Apr 19, 2015 at 4:46:08 AM

Latest Report: Apr 19, 2015 at 4:00 AM


Visibility: N/A

Pressure: 30.29 "Hg

Humidity: 70%

Dew point: 26 °F

Location of CornwallLocation

Historic Weather in Cornwall — Graph

°F

Cornwall temperature yesterday

Maximum temperature yesterday: 55 °F (at 6:00 PM)
Minimum temperature yesterday: 42 °F (at 6:00 AM)
Average temperature yesterday: 48 °F

Past Weeks' High & Low Weather Summary

 TemperatureHumidityPressure
High78 °F (Apr 13, 5:00 PM)100% (Apr 4, 5:00 AM)30.47 "Hg (Apr 4, 5:00 AM)
Low23 °F (Apr 6, 2:00 AM)20% (Apr 15, 5:00 PM)29.44 "Hg (Apr 10, 5:00 PM)
Average43 °F65%30.10 "Hg
* Reported Apr 4 3:00 AM — Apr 19 3:00 AM, Cornwall, Weather by CustomWeather, © 2015

Note: Actual official high and low records may vary slightly from our data, if they occured in-between our weather recording intervals... More about our weather records

Advertising

Cornwall weather history for previous 24 hours

 ConditionsComfort  
Time TempWeatherWind HumidityBarometerVisibility
3:00 AM
Sun, Apr 19
37 °FChilly.3 mph67%30.27 "HgN/A
2:00 AM39 °FChilly.3 mph66%30.26 "HgN/A
1:00 AM40 °FChilly.3 mph65%30.24 "HgN/A
12:00 AM41 °FQuite cool.5 mph62%30.24 "HgN/A
11:00 PM
Sat, Apr 18
43 °FQuite cool.5 mph64%30.22 "HgN/A
10:00 PM45 °FQuite cool.6 mph58%30.19 "HgN/A
9:00 PM47 °FCool.5 mph56%30.16 "HgN/A
8:00 PM50 °FCool.8 mph49%30.11 "HgN/A
7:00 PM53 °FCool.8 mph44%30.06 "HgN/A
6:00 PM55 °FRefreshingly cool.9 mph40%30.02 "HgN/A
5:00 PM54 °FCool.6 mph51%29.98 "HgN/A
4:00 PM53 °FCool.9 mph55%29.95 "HgN/A
3:00 PM54 °FCool.6 mph49%29.94 "HgN/A
2:00 PM51 °FCool.8 mph52%29.94 "HgN/A
1:00 PM50 °FCool.13 mph50%29.91 "HgN/A
12:00 PM49 °FCool.12 mph56%29.92 "HgN/A
11:00 AM53 °FCool.8 mph50%29.88 "HgN/A
10:00 AM48 °FCool.9 mph54%29.91 "HgN/A
9:00 AM46 °FCool.7 mph57%29.95 "HgN/A
8:00 AM43 °FQuite cool.8 mph59%29.96 "HgN/A
7:00 AM42 °FQuite cool.6 mph61%29.98 "HgN/A
6:00 AM42 °FQuite cool.8 mph61%29.96 "HgN/A
5:00 AM42 °FQuite cool.5 mph57%29.95 "HgN/A
4:00 AM44 °FQuite cool.5 mph57%29.96 "HgN/A
Weather by CustomWeather, © 2015

See weather overviewHow to use our weather pages